MONITOR-2 (RS39S) (57184 NORAD) Tracking and Keplerian Element Data

This shows tracking and keplerian element data for the satellite.

Feedback or suggestion? Click here.




ElementValue
Catalog57184
NameMONITOR-2 (RS39S)
Epoch Orbit7125
Epoch Day286.89661365
Epoch Year2024
RAAN338.2586
Inclination97.6013
Eccentricity0.0014902
Argument of Perigee71.5339
Mean Anonmoly288.7508
Mean Motion15.09874928
Decay Rate0.0001285
L11 57184U 23091U 24286.89661365 .00012850 00000+0 79473-3 0 9994
L22 57184 97.6013 338.2586 0014902 71.5339 288.7508 15.09874928 71258



Live tracking and technical data element details for MONITOR-2 (RS39S) (NORAD 57184). MONITOR-2 (RS39S) can be tracked NOW for your location showing map with azimuth and elevation plus other details from your city location.







IsCatalogInMostPopularTable: catalog: 57184, numindb: 31
Update: records affected: 1



GetName: 57184 MONITOR-2 (RS39S)

Hit Count: updated at: Thu, 23 Jan 2025 17:51:24 GMT